Regional Weather Roundup
Issued by NWS

Home | Current Version | Previous Version | Graphics & Text | Print | Product List | Glossary On
Versions: 1 2 3 4 5 6 7 8 9 10 11 12 13 14 15 16 17 18 19 20 21 22 23 24 25 26 27
000
ASUS45 KBOI 280310
RWRID

IDAHO REGIONAL WEATHER ROUNDUP
NATIONAL WEATHER SERVICE BOISE ID
900 PM MDT FRI MAY 27 2016

NOTE: "FAIR" INDICATES FEW OR NO CLOUDS BELOW 12000 FEET
WITH NO SIGNIFICANT WEATHER AND/OR OBSTRUCTIONS TO VISIBILITY

IDZ012-014-280400-
SOUTHWEST IDAHO


CITY           SKY/WX    TMP DP  RH WIND       PRES   REMARKS
BOISE          CLEAR     64  26  23 N10       29.93R
CALDWELL       CLEAR     62  34  35 NW8       29.94R
MOUNTAIN HOME  CLEAR     67  33  28 N14       29.92R
$$

IDZ016-017-280400-
SOUTHCENTRAL IDAHO


CITY           SKY/WX    TMP DP  RH WIND       PRES   REMARKS
BURLEY         CLEAR     57  32  38 W6        29.93R
JEROME         CLEAR     56  28  34 W13       29.93S
TWIN FALLS     CLEAR     55  29  36 W9        29.95R
$$

IDZ019>023-280400-
SOUTHEAST IDAHO


CITY           SKY/WX    TMP DP  RH WIND       PRES   REMARKS
IDAHO FALLS    CLEAR     57  31  37 SW17      29.90R
POCATELLO      PTCLDY    58  38  47 SW13      29.94R
REXBURG        CLOUDY    60  30  32 SW12G24   29.88R
$$

IDZ006-010-011-018-031-032-280400-
CENTRAL IDAHO MOUNTAINS


CITY           SKY/WX    TMP DP  RH WIND       PRES   REMARKS
MCCALL         CLEAR     49  31  49 NW7       29.97R
HAILEY         CLEAR     55  30  38 S10       29.92R
STANLEY          N/A     48  27  44 NW6       29.98R
SALMON         CLOUDY    52  39  62 SW3       29.94R
CHALLIS        PTCLDY    51  36  56 NE13G21   29.92R
$$

IDZ002-004-006-007-026-280400-
NORTHERN IDAHO


CITY           SKY/WX    TMP DP  RH WIND       PRES   REMARKS
LEWISTON       LGT RAIN  57  37  47 W10G31    30.01R
LOWELL           N/A     54  46  74 CALM      30.00R
COEUR D`ALENE  CLEAR     55  34  44 S9        29.95S
MULLAN PASS    PTCLDY    36  24  62 VRB5      30.01R WCI  32
$$




USA.gov is the U.S. government's official web portal to all federal, state and local government web resources and services.